• In Portugal
  • List of Countries
  • For 7 days
  • Water Temperature
  • Satellite Maps
  • Weather Map
  • Weather Widgets
  • user-avatar
    Login

    Hourly Weather Myitkyina

    Today, 19 February, Monday

    Time Temperature Precipitation Wind Pressure Humidity
    00:00 +18°C° 0 mm 1 mps 742 mmHg 56%
    01:00 +18°C° 0 mm 1 mps 742 mmHg 57%
    02:00 +18°C° 0 mm 1 mps 742 mmHg 57%
    03:00 +16°C° 0 mm 1 mps 742 mmHg 58%
    04:00 +16°C° 0 mm 1 mps 742 mmHg 58%
    05:00 +16°C° 0 mm 1 mps 742 mmHg 59%
    06:00 +16°C° 0 mm 1 mps 743 mmHg 59%
    07:00 +20°C° 0 mm 1 mps 743 mmHg 50%
    08:00 +23°C° 0 mm 1 mps 743 mmHg 41%
    09:00 +26°C° 0 mm 1 mps 743 mmHg 32%
    10:00 +29°C° 0 mm 1 mps 743 mmHg 29%
    11:00 +31°C° 0 mm 1 mps 742 mmHg 25%
    12:00 +31°C° 0 mm 0 mps 742 mmHg 22%
    13:00 +33°C° 0 mm 1 mps 741 mmHg 22%
    14:00 +32°C° 0 mm 1 mps 740 mmHg 22%
    15:00 +32°C° 0 mm 1 mps 739 mmHg 22%
    16:00 +29°C° 0 mm 1 mps 740 mmHg 29%
    17:00 +26°C° 0 mm 1 mps 740 mmHg 35%
    18:00 +23°C° 0 mm 1 mps 740 mmHg 42%
    19:00 +22°C° 0 mm 1 mps 740 mmHg 43%
    20:00 +21°C° 0 mm 1 mps 741 mmHg 44%
    21:00 +20°C° 0 mm 1 mps 741 mmHg 46%
    22:00 +20°C° 0 mm 1 mps 742 mmHg 47%
    23:00 +19°C° 0 mm 1 mps 742 mmHg 48%

    Tomorrow, 20 February, Tuesday

    Time Temperature Precipitation Wind Pressure Humidity
    00:00 +19°C° 0 mm 1 mps 742 mmHg 49%
    01:00 +18°C° 0 mm 1 mps 742 mmHg 50%
    02:00 +18°C° 0 mm 1 mps 742 mmHg 51%
    03:00 +18°C° 0 mm 1 mps 742 mmHg 52%
    04:00 +16°C° 0 mm 1 mps 742 mmHg 52%
    05:00 +16°C° 0 mm 1 mps 742 mmHg 52%
    06:00 +16°C° 0 mm 1 mps 742 mmHg 53%
    07:00 +20°C° 0 mm 1 mps 743 mmHg 45%
    08:00 +23°C° 0 mm 1 mps 743 mmHg 38%
    09:00 +27°C° 0 mm 1 mps 743 mmHg 30%
    10:00 +29°C° 0 mm 1 mps 743 mmHg 27%
    11:00 +29°C° 0 mm 0 mps 742 mmHg 24%
    12:00 +31°C° 0 mm 0 mps 741 mmHg 21%
    13:00 +31°C° 0 mm 0 mps 741 mmHg 22%
    14:00 +31°C° 0 mm 0 mps 740 mmHg 22%
    15:00 +30°C° 0 mm 0 mps 739 mmHg 22%
    16:00 +27°C° 0 mm 0 mps 739 mmHg 29%
    17:00 +24°C° 0 mm 0 mps 739 mmHg 35%
    18:00 +21°C° 0 mm 0 mps 740 mmHg 41%
    19:00 +22°C° 0 mm 1 mps 740 mmHg 42%
    20:00 +21°C° 0 mm 1 mps 741 mmHg 43%
    21:00 +20°C° 0 mm 1 mps 741 mmHg 44%
    22:00 +20°C° 0 mm 1 mps 741 mmHg 45%
    23:00 +19°C° 0 mm 1 mps 741 mmHg 46%

    Day after tomorrow, 21 February, Wednesday

    Time Temperature Precipitation Wind Pressure Humidity
    00:00 +19°C° 0 mm 1 mps 741 mmHg 46%
    01:00 +18°C° 0 mm 1 mps 740 mmHg 47%
    02:00 +18°C° 0 mm 1 mps 740 mmHg 48%
    03:00 +16°C° 0 mm 1 mps 740 mmHg 48%
    04:00 +16°C° 0 mm 1 mps 740 mmHg 49%
    05:00 +16°C° 0 mm 1 mps 740 mmHg 49%
    06:00 +16°C° 0 mm 1 mps 740 mmHg 49%
    07:00 +20°C° 0 mm 1 mps 741 mmHg 42%
    08:00 +23°C° 0 mm 1 mps 742 mmHg 35%
    09:00 +25°C° 0 mm 0 mps 742 mmHg 28%
    10:00 +27°C° 0 mm 0 mps 741 mmHg 25%
    11:00 +29°C° 0 mm 0 mps 741 mmHg 22%
    12:00 +33°C° 0 mm 1 mps 740 mmHg 20%
    13:00 +33°C° 0 mm 1 mps 739 mmHg 20%
    14:00 +33°C° 0 mm 1 mps 738 mmHg 20%
    15:00 +32°C° 0 mm 1 mps 737 mmHg 21%
    16:00 +29°C° 0 mm 1 mps 738 mmHg 27%
    17:00 +26°C° 0 mm 1 mps 738 mmHg 33%
    18:00 +23°C° 0 mm 1 mps 738 mmHg 39%
    19:00 +22°C° 0 mm 1 mps 739 mmHg 41%
    20:00 +21°C° 0 mm 1 mps 740 mmHg 42%
    21:00 +20°C° 0 mm 1 mps 740 mmHg 43%
    22:00 +20°C° 0 mm 1 mps 740 mmHg 44%
    23:00 +19°C° 0 mm 1 mps 740 mmHg 45%

    22 February, Thursday

    Time Temperature Precipitation Wind Pressure Humidity
    00:00 +19°C° 0 mm 1 mps 740 mmHg 46%
    01:00 +19°C° 0 mm 1 mps 740 mmHg 46%
    02:00 +18°C° 0 mm 1 mps 740 mmHg 47%
    03:00 +18°C° 0 mm 1 mps 740 mmHg 47%
    04:00 +16°C° 0 mm 1 mps 740 mmHg 48%
    05:00 +16°C° 0 mm 1 mps 740 mmHg 48%
    06:00 +16°C° 0 mm 1 mps 741 mmHg 48%
    07:00 +20°C° 0 mm 1 mps 741 mmHg 42%
    08:00 +23°C° 0 mm 1 mps 742 mmHg 35%
    09:00 +27°C° 0 mm 1 mps 742 mmHg 29%
    10:00 +29°C° 0 mm 1 mps 742 mmHg 26%
    11:00 +31°C° 0 mm 1 mps 741 mmHg 23%
    12:00 +31°C° 0 mm 0 mps 740 mmHg 19%
    13:00 +31°C° 0 mm 0 mps 739 mmHg 19%
    14:00 +33°C° 0 mm 1 mps 739 mmHg 19%
    15:00 +33°C° 0 mm 1 mps 738 mmHg 19%
    16:00 +30°C° 0 mm 1 mps 738 mmHg 26%
    17:00 +26°C° 0 mm 1 mps 739 mmHg 32%
    18:00 +21°C° 0 mm 0 mps 739 mmHg 38%
    19:00 +22°C° 0 mm 1 mps 740 mmHg 38%
    20:00 +21°C° 0 mm 1 mps 740 mmHg 39%
    21:00 +21°C° 0 mm 1 mps 741 mmHg 40%
    22:00 +20°C° 0 mm 1 mps 741 mmHg 41%
    23:00 +20°C° 0 mm 1 mps 741 mmHg 42%

    23 February, Friday

    Time Temperature Precipitation Wind Pressure Humidity
    00:00 +19°C° 0 mm 1 mps 741 mmHg 42%
    01:00 +19°C° 0 mm 1 mps 741 mmHg 43%
    02:00 +18°C° 0 mm 1 mps 741 mmHg 44%
    03:00 +18°C° 0 mm 1 mps 740 mmHg 45%
    04:00 +18°C° 0 mm 1 mps 741 mmHg 45%
    05:00 +16°C° 0 mm 1 mps 741 mmHg 46%
    06:00 +16°C° 0 mm 1 mps 741 mmHg 46%
    07:00 +21°C° 0 mm 1 mps 742 mmHg 39%
    08:00 +24°C° 0 mm 1 mps 742 mmHg 33%
    09:00 +27°C° 0 mm 1 mps 743 mmHg 26%
    10:00 +30°C° 0 mm 1 mps 742 mmHg 24%
    11:00 +32°C° 0 mm 1 mps 741 mmHg 22%
    12:00 +34°C° 0 mm 1 mps 741 mmHg 19%
    13:00 +33°C° 0 mm 1 mps 740 mmHg 20%
    14:00 +33°C° 0 mm 1 mps 739 mmHg 20%
    15:00 +33°C° 0 mm 1 mps 738 mmHg 21%
    16:00 +30°C° 0 mm 1 mps 739 mmHg 27%
    17:00 +27°C° 0 mm 1 mps 739 mmHg 33%
    18:00 +24°C° 0 mm 1 mps 739 mmHg 39%
    19:00 +23°C° 0 mm 1 mps 740 mmHg 40%
    20:00 +22°C° 0 mm 1 mps 741 mmHg 41%
    21:00 +21°C° 0 mm 1 mps 741 mmHg 43%
    22:00 +20°C° 0 mm 1 mps 742 mmHg 44%
    23:00 +20°C° 0 mm 1 mps 742 mmHg 45%

    24 February, Saturday

    Time Temperature Precipitation Wind Pressure Humidity
    00:00 +19°C° 0 mm 1 mps 742 mmHg 46%
    01:00 +19°C° 0 mm 1 mps 742 mmHg 46%
    02:00 +19°C° 0 mm 1 mps 742 mmHg 47%
    03:00 +18°C° 0 mm 1 mps 742 mmHg 47%
    04:00 +18°C° 0 mm 1 mps 742 mmHg 48%
    05:00 +18°C° 0 mm 1 mps 743 mmHg 48%
    06:00 +16°C° 0 mm 1 mps 743 mmHg 48%
    07:00 +21°C° 0 mm 1 mps 744 mmHg 42%
    08:00 +24°C° 0 mm 1 mps 744 mmHg 35%
    09:00 +27°C° 0 mm 1 mps 744 mmHg 29%
    10:00 +29°C° 0 mm 1 mps 744 mmHg 26%
    11:00 +32°C° 0 mm 1 mps 743 mmHg 23%
    12:00 +34°C° 0 mm 1 mps 742 mmHg 20%
    13:00 +34°C° 0 mm 1 mps 742 mmHg 20%
    14:00 +34°C° 0 mm 1 mps 741 mmHg 20%
    15:00 +34°C° 0 mm 1 mps 740 mmHg 20%
    16:00 +30°C° 0 mm 1 mps 741 mmHg 26%
    17:00 +27°C° 0 mm 1 mps 741 mmHg 32%
    18:00 +24°C° 0 mm 1 mps 741 mmHg 38%
    19:00 +23°C° 0 mm 1 mps 742 mmHg 39%
    20:00 +22°C° 0 mm 1 mps 742 mmHg 40%
    21:00 +21°C° 0 mm 1 mps 743 mmHg 41%
    22:00 +20°C° 0 mm 1 mps 743 mmHg 42%
    23:00 +20°C° 0 mm 1 mps 743 mmHg 43%
    Show more